Wind_Speed
10 10 9 9 8 8 7 7 7 8 7 7 7 7 7 8 8 8 7 6 6 6 6 6 6 6 5 5 5 5 5 5 5 6 7 6 6 7 7 8 9 9 9
10 10 9 9 9 8 8 7 7 8 7 7 7 7 8 8 8 8 8 7 7 7 7 7 7 6 6 6 6 6 6 5 5 6 6 7 7 6 7 7 8 9 9
10 10 9 9 9 8 8 8 8 8 8 8 8 8 8 8 8 9 8 8 8 8 8 7 7 7 7 6 7 7 6 6 6 6 6 7 7 6 6 7 8 9 9
10 10 10 10 9 8 8 9 9 9 9 8 8 8 8 9 9 10 9 9 9 9 9 8 8 7 7 7 8 8 8 8 8 7 8 8 8 7 7 7 8 9 9
11 10 10 10 10 9 8 9 9 10 10 10 10 10 10 10 10 10 10 10 10 10 10 9 9 8 8 8 8 9 8 8 8 9 9 9 9 8 9 9 8 9 9
11 11 10 10 10 10 10 10 10 11 11 12 12 12 11 11 11 11 11 12 11 11 11 11 9 9 9 9 9 9 9 9 10 11 11 10 10 9 10 10 9 10 10
11 11 11 10 10 10 10 10 11 12 12 13 13 13 13 13 12 12 12 13 13 12 12 12 11 10 10 10 10 10 10 11 11 12 12 12 12 11 11 11 11 11 11
12 12 12 12 11 11 11 11 12 13 13 14 13 13 14 14 13 13 13 13 14 13 13 13 12 12 12 12 11 12 12 12 12 12 12 13 13 13 12 12 13 12 12
13 13 13 13 12 11 11 12 12 13 14 14 15 14 14 15 14 14 14 14 14 14 14 14 14 13 13 13 12 12 13 13 12 13 13 13 13 13 13 14 14 14 14
13 13 13 13 12 12 11 12 13 14 14 15 15 15 15 15 15 15 15 14 15 15 15 15 14 14 14 14 13 13 14 14 14 14 14 14 14 14 14 15 15 14 15
14 13 12 12 13 12 11 12 13 14 14 15 15 16 16 16 16 16 15 15 15 15 15 15 14 14 14 14 14 14 15 15 15 15 15 15 15 15 15 16 16 16 15
14 13 13 13 13 13 12 13 13 14 14 16 16 17 16 16 16 15 15 16 15 15 15 15 15 14 15 15 15 15 15 16 16 15 16 15 15 15 16 17 17 17 17
14 14 13 13 13 13 13 13 13 14 15 16 16 16 16 17 17 17 16 16 16 16 16 15 15 15 15 15 15 16 16 16 16 16 16 16 16 16 16 17 18 18 18
14 14 14 13 13 13 13 13 14 15 15 16 16 16 16 17 17 16 16 15 16 16 16 16 16 15 15 15 16 16 16 16 16 16 17 17 17 16 17 17 18 18 19
14 15 15 15 14 14 14 14 15 16 16 16 16 15 16 16 16 15 14 15 16 16 16 16 16 16 16 16 16 16 16 17 16 16 17 18 18 18 18 19 19 19 19
15 15 15 15 14 14 15 15 16 16 17 16 16 16 16 16 16 16 16 16 16 16 17 17 17 17 17 18 18 18 17 18 18 18 19 19 19 20 20 19 20 20 21
15 15 15 14 15 15 16 16 17 17 17 17 17 17 17 17 17 17 17 16 16 17 17 18 18 19 19 19 19 19 18 18 19 20 20 20 20 21 21 21 21 21 22
16 16 16 16 16 16 16 16 17 18 18 18 18 18 18 17 18 18 17 17 17 17 18 18 19 20 20 20 19 19 19 20 20 20 21 21 21 21 22 22 22 23 23
18 18 18 18 17 17 18 19 19 20 19 19 19 19 18 19 19 18 18 18 18 19 19 19 20 21 21 21 20 20 20 21 20 20 21 22 23 22 23 24 24 24 25
20 20 20 18 18 20 20 20 20 20 19 19 20 19 19 19 19 19 19 19 19 20 20 21 22 22 22 22 21 21 21 22 22 22 22 23 24 24 24 25 25 25 25
21 20 20 20 20 21 20 20 20 19 19 19 20 20 20 20 21 20 21 21 21 21 22 23 23 23 23 22 23 22 22 23 23 24 24 24 24 24 25 26 26 26 26
20 20 21 21 21 21 21 20 19 19 19 20 20 20 20 21 21 22 22 22 22 22 23 23 24 24 23 23 23 23 23 23 23 24 24 25 24 24 25 26 27 27 27
19 20 21 21 22 22 21 21 20 20 20 20 20 20 21 22 22 23 23 23 22 22 23 23 24 24 24 24 23 23 23 23 24 25 26 25 24 25 25 26 26 26 27
20 21 21 22 22 22 21 21 21 20 20 20 21 21 21 22 23 23 24 23 24 24 24 24 24 24 25 25 25 25 25 25 25 25 25 25 25 25 25 25 26 27 27
20 20 21 22 21 21 21 21 21 21 21 21 21 21 21 21 22 22 23 24 24 24 24 25 25 25 25 26 26 26 26 26 26 26 26 26 26 27 26 26 26 27 27
20 21 21 21 22 22 22 22 22 22 22 22 22 22 21 21 21 22 23 24 25 26 26 26 26 25 26 26 27 27 27 26 27 27 27 27 27 27 27 26 26 26 26
Wind_Direction
346 341 334 332 332 335 336 338 339 340 340 338 336 331 326 325 320 315 315 311 309 308 306 306 306 296 292 292 281 265 258 250 252 254 253 254 247 237 235 229 220 219 219
334 332 329 326 327 330 334 332 329 328 328 326 325 323 320 318 314 309 307 306 302 301 299 296 300 294 289 287 281 268 258 251 257 258 254 248 244 238 232 231 227 228 226
326 326 320 318 319 322 324 323 319 315 315 316 317 316 315 313 309 306 303 300 298 295 292 291 294 289 284 284 278 277 265 258 255 253 248 246 243 241 238 233 235 234 229
324 320 317 315 313 314 313 313 310 306 307 308 308 309 309 306 302 301 301 299 295 290 286 287 287 283 282 281 277 274 268 263 258 254 250 248 245 244 245 241 243 238 231
323 316 314 315 310 307 305 304 304 299 298 300 301 300 299 299 298 295 294 295 293 288 283 283 281 278 277 278 275 272 270 269 260 261 255 252 251 246 246 247 246 242 238
322 317 314 311 309 305 300 299 299 296 294 297 297 295 293 293 293 290 290 290 289 286 282 279 277 276 276 276 275 272 268 266 262 262 263 260 254 249 250 250 247 247 245
320 316 310 307 308 305 301 298 296 293 293 295 295 292 289 289 288 286 286 285 283 282 280 276 274 273 275 276 272 268 265 263 262 262 261 261 255 253 252 253 249 248 249
324 317 312 308 306 305 302 297 295 294 292 292 291 289 287 286 284 282 283 283 281 281 278 274 272 271 270 271 271 267 266 266 264 263 263 261 256 254 254 255 253 251 252
323 317 309 304 300 298 296 295 296 296 294 294 293 289 285 284 281 280 281 283 278 275 272 272 271 269 270 270 268 268 266 266 267 267 266 260 256 254 256 257 257 257 253
321 317 309 301 298 296 294 296 297 296 296 296 297 289 286 287 282 278 278 278 273 269 270 272 271 270 270 269 268 268 267 267 268 266 267 262 258 258 257 257 259 259 255
320 317 312 305 301 300 300 300 301 300 297 296 296 290 286 287 285 279 276 275 270 269 270 271 270 271 270 268 266 267 268 267 267 266 267 264 260 260 258 258 258 257 254
315 314 311 307 305 306 305 303 302 301 300 297 296 292 288 288 286 279 276 274 271 269 268 268 269 269 270 267 264 265 266 265 266 267 266 266 263 261 258 257 259 256 254
314 312 308 304 306 307 305 304 304 303 301 299 297 295 291 288 284 279 280 274 269 269 265 266 269 269 270 269 268 267 266 265 263 265 264 264 262 261 261 258 257 256 254
315 311 307 304 305 307 307 309 306 304 302 301 296 291 289 288 283 280 279 275 270 269 265 264 266 268 270 271 271 269 267 266 262 264 264 264 261 260 262 262 261 256 254
313 310 309 307 307 308 309 310 308 305 302 300 296 293 290 288 288 284 280 275 271 270 267 265 266 267 269 269 270 268 267 264 262 262 264 263 260 261 262 263 263 260 255
309 310 312 310 310 311 310 309 306 305 302 298 296 292 289 288 288 283 281 277 273 271 268 266 267 267 267 267 268 267 267 265 263 264 265 264 259 259 262 265 263 262 260
310 311 312 310 313 311 309 306 306 303 301 298 295 292 288 286 285 283 278 274 273 270 268 267 268 266 267 268 267 266 265 266 267 264 264 263 260 259 261 263 263 263 261
312 311 309 310 311 309 306 305 304 303 300 297 294 292 287 283 283 282 277 274 273 269 268 268 268 267 268 269 268 266 265 266 268 267 264 264 263 261 261 261 262 262 261
311 312 312 312 311 309 306 304 301 299 297 294 294 291 286 284 284 282 278 275 272 269 267 267 268 267 266 268 268 267 267 266 267 268 267 264 263 263 262 262 262 262 260
309 313 314 314 312 310 307 304 300 297 295 293 292 289 286 285 284 281 279 275 272 270 268 268 269 269 268 267 267 269 268 266 267 267 268 266 264 263 262 263 262 261 260
310 312 312 312 310 310 308 305 302 298 295 293 290 288 286 284 283 281 280 277 274 271 271 270 269 269 268 268 267 268 268 266 267 268 267 266 266 264 262 261 260 260 259
308 308 308 313 310 309 309 307 304 299 296 294 291 288 287 285 283 280 277 276 276 274 273 272 272 271 269 268 268 268 267 267 268 268 266 267 266 264 263 260 261 261 259
308 309 311 310 309 308 307 306 305 300 296 293 291 288 287 285 282 279 277 278 279 279 278 276 273 271 268 267 267 269 269 270 269 269 268 266 264 265 265 263 261 261 260
308 310 313 311 308 307 307 307 304 303 300 296 292 289 286 283 281 280 279 278 277 277 277 276 273 270 268 266 267 268 270 270 270 268 267 268 265 265 265 264 262 259 260
309 310 311 310 310 308 307 307 307 306 303 299 294 290 286 285 283 281 279 278 276 276 276 275 273 270 269 268 267 267 269 269 268 267 267 269 270 266 266 266 263 259 259
307 307 307 307 307 307 306 305 306 306 304 302 298 292 288 287 285 282 279 279 278 276 275 273 272 270 269 270 267 265 266 267 267 267 268 269 268 267 265 266 266 262 259
Height
5884 5884 5883 5883 5882 5881 5880 5879 5879 5879 5878 5879 5878 5878 5878 5878 5878 5878 5878 5878 5879 5879 5879 5879 5880 5880 5881 5881 5881 5882 5882 5883 5884 5884 5885 5886 5886 5887 5888 5889 5890 5891 5892
5884 5883 5882 5882 5881 5880 5879 5878 5878 5878 5877 5877 5877 5877 5877 5877 5877 5877 5877 5877 5877 5878 5878 5878 5878 5879 5879 5880 5880 5881 5881 5882 5882 5883 5884 5885 5886 5886 5887 5888 5889 5890 5891
5883 5882 5882 5881 5879 5879 5878 5877 5877 5877 5876 5876 5876 5876 5876 5875 5875 5876 5876 5876 5876 5876 5876 5876 5877 5877 5878 5878 5879 5879 5880 5881 5881 5882 5883 5884 5884 5885 5886 5887 5888 5889 5890
5882 5881 5880 5879 5878 5877 5876 5876 5875 5875 5875 5874 5874 5874 5874 5874 5874 5874 5874 5874 5874 5874 5874 5875 5875 5876 5876 5877 5877 5878 5878 5879 5879 5880 5881 5882 5883 5884 5885 5886 5887 5887 5888
5880 5879 5878 5877 5876 5876 5875 5874 5874 5873 5873 5873 5873 5872 5872 5872 5872 5872 5872 5872 5872 5872 5872 5873 5873 5874 5874 5875 5875 5876 5876 5877 5877 5878 5880 5881 5882 5882 5883 5884 5884 5885 5886
5878 5877 5876 5875 5875 5874 5873 5872 5872 5871 5871 5871 5871 5870 5870 5870 5869 5869 5870 5870 5870 5870 5871 5871 5871 5872 5872 5873 5873 5874 5875 5875 5876 5877 5878 5879 5880 5880 5881 5881 5883 5884 5885
5877 5876 5874 5873 5872 5872 5871 5871 5870 5870 5869 5869 5868 5868 5867 5867 5867 5867 5867 5867 5867 5868 5868 5868 5869 5870 5870 5871 5871 5872 5872 5873 5874 5875 5876 5876 5877 5878 5879 5880 5881 5882 5883
5874 5874 5873 5871 5871 5870 5869 5869 5868 5867 5867 5866 5866 5865 5865 5864 5864 5864 5864 5864 5864 5865 5865 5866 5866 5867 5868 5868 5869 5869 5870 5871 5872 5872 5873 5874 5875 5876 5876 5877 5878 5879 5880
5872 5871 5870 5869 5868 5868 5867 5866 5865 5865 5864 5864 5863 5863 5862 5862 5861 5861 5861 5861 5861 5862 5862 5863 5863 5864 5865 5866 5866 5867 5867 5868 5869 5870 5870 5871 5872 5873 5874 5875 5876 5877 5878
5870 5869 5868 5867 5866 5865 5864 5863 5863 5862 5861 5861 5860 5859 5859 5859 5858 5858 5858 5858 5858 5858 5859 5860 5860 5861 5862 5862 5863 5864 5864 5865 5866 5866 5867 5868 5869 5870 5871 5872 5873 5874 5875
5868 5866 5865 5864 5863 5862 5861 5861 5860 5859 5858 5858 5857 5856 5856 5855 5855 5855 5855 5854 5855 5855 5856 5856 5857 5857 5858 5859 5860 5860 5861 5861 5862 5863 5864 5865 5866 5867 5868 5869 5870 5871 5872
5865 5863 5862 5861 5860 5859 5858 5858 5857 5856 5856 5855 5854 5853 5852 5852 5851 5851 5851 5851 5851 5852 5852 5852 5853 5854 5854 5855 5856 5857 5857 5858 5859 5859 5860 5861 5862 5863 5864 5865 5866 5867 5868
5862 5861 5859 5858 5857 5856 5855 5855 5854 5853 5852 5851 5850 5849 5849 5848 5848 5847 5848 5848 5848 5848 5848 5849 5849 5850 5851 5852 5852 5853 5854 5854 5855 5856 5857 5858 5859 5859 5860 5861 5862 5864 5865
5859 5858 5856 5855 5854 5854 5853 5851 5851 5850 5849 5848 5847 5846 5845 5844 5844 5844 5844 5844 5844 5844 5845 5845 5846 5846 5847 5848 5849 5849 5850 5851 5851 5852 5853 5854 5855 5856 5856 5857 5858 5859 5861
5857 5855 5853 5852 5851 5851 5850 5848 5848 5847 5845 5844 5843 5842 5841 5841 5840 5840 5840 5840 5840 5840 5841 5841 5842 5842 5843 5844 5845 5845 5846 5846 5847 5848 5849 5849 5850 5851 5852 5853 5854 5855 5856
5854 5852 5850 5849 5848 5847 5846 5845 5844 5843 5841 5840 5839 5838 5837 5837 5836 5836 5836 5836 5836 5836 5837 5837 5838 5838 5839 5840 5840 5841 5842 5842 5843 5843 5844 5845 5846 5847 5848 5849 5850 5851 5851
5852 5850 5848 5847 5846 5844 5843 5841 5840 5839 5837 5836 5835 5834 5833 5832 5832 5831 5831 5831 5832 5832 5832 5833 5833 5834 5835 5835 5836 5836 5837 5837 5838 5838 5839 5840 5841 5842 5843 5844 5845 5846 5846
5849 5847 5846 5844 5842 5841 5839 5838 5836 5834 5833 5832 5830 5829 5829 5828 5827 5827 5827 5827 5827 5827 5828 5828 5829 5829 5830 5830 5831 5832 5832 5833 5833 5833 5834 5835 5835 5836 5837 5838 5839 5840 5841
5846 5844 5842 5840 5838 5837 5835 5833 5832 5830 5828 5827 5826 5825 5824 5823 5823 5822 5822 5822 5822 5822 5823 5823 5824 5824 5825 5825 5826 5826 5826 5827 5828 5828 5828 5828 5829 5830 5831 5832 5833 5834 5835
5843 5841 5839 5836 5834 5832 5830 5828 5826 5825 5823 5822 5821 5820 5819 5818 5817 5817 5817 5817 5817 5817 5817 5818 5818 5818 5819 5820 5820 5820 5821 5821 5822 5822 5822 5823 5823 5824 5825 5826 5827 5828 5829
5839 5837 5834 5832 5830 5828 5826 5823 5821 5819 5818 5816 5815 5814 5813 5812 5812 5812 5811 5811 5811 5811 5811 5811 5812 5812 5813 5813 5814 5814 5815 5815 5816 5816 5816 5816 5817 5818 5818 5819 5820 5821 5822
5835 5833 5830 5828 5826 5824 5821 5818 5816 5814 5812 5811 5809 5808 5807 5806 5806 5805 5805 5805 5805 5805 5805 5805 5805 5806 5806 5806 5807 5807 5808 5809 5809 5809 5810 5810 5811 5811 5812 5813 5813 5814 5815
5831 5829 5827 5824 5822 5819 5816 5814 5811 5809 5807 5805 5803 5802 5801 5800 5799 5799 5798 5798 5799 5799 5799 5799 5799 5799 5799 5800 5800 5801 5801 5802 5803 5803 5803 5804 5804 5805 5805 5805 5806 5807 5808
5828 5825 5822 5820 5817 5814 5811 5809 5806 5803 5801 5799 5797 5796 5795 5794 5793 5792 5792 5792 5792 5792 5792 5792 5792 5792 5792 5793 5794 5794 5795 5795 5796 5796 5796 5797 5797 5798 5798 5799 5799 5800 5801
5823 5821 5818 5815 5812 5809 5806 5804 5801 5798 5796 5793 5792 5790 5789 5788 5787 5786 5785 5785 5785 5785 5785 5785 5785 5785 5785 5786 5786 5787 5787 5788 5788 5789 5790 5790 5790 5790 5791 5791 5792 5793 5794
5819 5816 5813 5810 5807 5804 5802 5799 5796 5794 5791 5788 5786 5785 5783 5782 5781 5780 5779 5779 5778 5778 5778 5778 5778 5778 5778 5778 5779 5779 5780 5780 5781 5782 5783 5783 5783 5783 5783 5784 5784 5785 5786